Погода в Велиже

Погода в Велиже : погода сейчас, прогноз погоды и архив. Всё, что Вы хотите узнать о погоде в Велиже!

Поиск расширенной информации на нашем сайте:

Другие новости

Новости СМИ2

Главная страница сайта

Новости сайта

03.07.2017

Напоминаем, что на нашем специализированном сайте Метеоцентр.Азия вы можете получить высокодетализированные автоматические прогнозы погоды по пунктам России, СНГ и мира в авиационном формате (включающие направление и скорость ветра, видимость, явления погоды, количество и форму облачности, нижнюю и верхнюю границу облачности).


Погода в Велиже - сегодня

Время (UTC), дата Ветер
(°,м/с) 
Видим.   Явления Облачность Т
(°С)
Тd
(°С)
f(%) Тe
(°С)
Pmin
(гПа)
dP
(гПа)
Po
(мм)
O2
(г/м3)
Тmin Tmax R s Состояние
почвы
12 20.10.17 350 (С) 18000 м  {туман}  8/8 800 м 
[Sc]
+10.3 +2.6 59 +10  1022.6  -1.1  752  292           
15 20.10.17 тихо ()   15000 м    8/8 600 м 
[Sc]
+4.1 +1.2 81 +4  1023  0.1  752  298           
18 20.10.17 230 (ЮЗ) 15000 м    3/0 средняя 
[Ac trans]
-1.7 -2.1 97 -1  1023.9  0.5  752  305    +10.5       
21 20.10.17 тихо ()   15000 м    ясно 
-3.2 -3.6 97 -3  1024.1  0.1  752  307           
00 21.10.17 270 (З) 15000 м    ясно 
-3.9 -4.5 96 -3  1023.7  -0.5  752  308           
03 21.10.17 тихо ()   15000 м    ясно 
-4.7 -5.3 96 -5  1023.5  -0.3  752  309  -5.4         
06 21.10.17 тихо ()   20000 м    3/0 верхняя 
[Cc]
-3.5 -4 96 -4  1023  -0.3  751  307  -5.6        влажная 
09 21.10.17 030 (СВ) 0500 м  туман  ?/?  
-0.7 -1.2 96 -3  1023.2  0.4  752  304           
12 21.10.17 030 (СВ) 3200 м  в посл. час туман  10/10 600 м 
[Sc diur, vesp]
+0.7 -0.7 90 -1  1022.3  -0.8  751  302           
15 21.10.17 310 (СЗ) 20000 м    3/3 600 м 
[Sc diur, vesp]
-1 -2.3 91 1021.6  -0.8  751  304           
18 21.10.17 300 (СЗ) 15000 м    6/6 600 м 
[Sc]
-0.2 -1.2 93 -1  1021.7  0.1  751  303    +2.6       
21 21.10.17 040 (СВ) 15000 м    3/3 480 м 
[Sc]
-0.3 -2.9 83 1022.2  0.5  751  303           
00 22.10.17 330 (СЗ) 15000 м    ясно 
-1.8 -4.3 83 -3  1022.4  0.1  751  305           
03 22.10.17 320 (СЗ) 16000 м    ясно 
-4 -5.2 91 -4  1022.9  0.2  751  308  -4         
06 22.10.17 тихо ()   н/о    н/о 
-4.9 -5.6 95 -5  1022.9  751  309           
09 22.10.17 270 (З) 22000 м    ясно 
+2.6 -3.8 63 +3  1022.3  -0.1  751  300           
12 22.10.17 280 (З) 25000 м    ясно 
+4.6 -5.2 49 +4  1021  -1.1  750  298           
15 22.10.17 280 (З) 20000 м    ясно 
-0.3 -5.3 69 1020.4  -0.9  750  303           
18 22.10.17 тихо ()   18000 м    ясно 
-5 -6 93 -5  1020.8  0.1  750  308    +4.6       
21 22.10.17 тихо ()   15000 м    ясно 
-5.8 -6.5 95 -6  1020.7  -0.2  750  309           
00 23.10.17 тихо ()   13000 м    ясно 
-6.1 -6.7 96 -6  1020.6  0.1  749  310           
03 23.10.17 тихо ()   15000 м    ясно 
-7.5 -8.4 93 -8  1021.3  0.5  750  312  -8         
06 23.10.17 тихо ()   18000 м    6/6 800 м 
[Sc]
-5.3 -6.2 93 -5  1021.7  0.5  750  309  -8        замёрзшая 
09 23.10.17 070 (В) 20000 м    9/9 660 м 
[Sc diur, vesp]
+0.2 -1.6 88 -1  1022.5  1.2  751  303           
12 23.10.17 070 (В) 25000 м    3/3 600 м 
[Sc]
+3.5 -3 62 +2  1022.9  0.6  752  299           
Время (UTC), дата Ветер
(°,м/с) 
Видим.   Явления Облачность Т
(°С)
Тd
(°С)
f(%) Тe
(°С)
Pmin
(гПа)
dP
(гПа)
Po
(мм)
O2
(г/м3)
Тmin Tmax R s Состояние
почвы

Для получения пояснительной информации подведите курсор к названию столбца.

ПОГОДА в Велиже - архив

Всё, что Вы хотите узнать о погоде в Велиже - удобно и подробно!

Выберите нужную дату (начиная с 1 января 2015* года) и нажмите кнопку "Найти".
Будут отображены архивные сводки погоды по пункту Велиж, начиная с указанной даты.


Отображать данные в формате CSV (для использования в таблицах Excel)


Внимание! Наш архив погоды предназначен исключительно для личного некоммерческого использования в познавательных целях. Если Вам необходимы официальные справки о состоянии погоды (для производственных, юридических, коммерческих и т.п. целей), обращайтесь в органы Росгидромета.

*Примечание: данная дата относится к архиву по метеостанциям СССР (Россия, СНГ, Балтия).
Архив по метеостанциям Зарубежной Европы и Азии (кроме Китая) хранится 10 дней, по другим регионам земного шара (Китай, Африка, Америка, Австралия, Океания) - 1 день.

Велиж - район местоположения метеостанции


Название, широта, долгота, высота метеостанции:
Велиж 55.6°ш. 31.2°д. 183 м над ур. моря [Российская Федерация]

Дополнительная информация

В oтличие oт бoльшинства пoгoдных сайтoв мы публикуем пoдрoбную метеoинфoрмацию в детальнoм прoфессиoнальнoм фoрмате.

Характеристики температуры и влажнoсти вoздуха измеряются на высoте 2 м в тени вдали oт зданий и деревьев.
Скoрoсть ветра измеряется на высoте 10 м (на урoвне рoста челoвека скoрoсть ветра ниже в 1.5-2 раза). Если метеoстанция нахoдится в гoрoде или в лесу, тo скoрoсть ветра занижена на 2-4 м/с пo сравнению с oткрытым местoм. Скoрoсть ветра над акватoриями крупных рек и oзёр, а также на вершинах хoлмoв на 2-5 м/с выше, чем в oбычных услoвиях.
Атмoсфернoе давление в разных тoчках местнoсти мoжет значительнo oтличаться oт давления на метеoстанции, в зависимoсти oт услoвий рельефа (при пoдъёме на 10 м давление пoнижается примернo на 1 мм рт.ст.).